DW1521 Weather Reports


Display with metric or nautical units.
time (UTC)temp
F
wind
direction
speed
MPH
gust
MPH
rain 1hr
in
rain 24hr
in
rain mn
in
humidity
%
barometer
mb
20260503211334 36 52 0.0 0.0 0.00 0.00 0.00 64 1021.1
20260503210334 37 72 0.0 1.0 0.00 0.00 0.00 64 1021.1
20260503205834 37 106 1.0 2.0 0.00 0.00 0.00 64 1020.8
20260503203334 38 323 1.0 2.0 0.00 0.00 0.00 63 1021.1
20260503201834 38 341 0.0 1.0 0.00 0.00 0.00 62 1020.9
20260503201334 38 327 1.0 1.0 0.00 0.00 0.00 62 1021.0
20260503200834 38 313 0.0 1.0 0.00 0.00 0.00 62 1021.2
20260503200334 39 2 1.0 2.0 0.00 0.00 0.00 62 1021.2
20260503195834 39 358 1.0 1.0 0.00 0.00 0.00 61 1021.0
20260503195333 39 346 0.0 1.0 0.00 0.00 0.00 61 1021.2
20260503194334 40 358 0.0 1.0 0.00 0.00 0.00 60 1021.1
20260503193834 40 60 0.0 3.0 0.00 0.00 0.00 61 1021.0
20260503191834 41 329 1.0 2.0 0.00 0.00 0.00 59 1020.9
20260503190335 41 318 1.0 2.0 0.00 0.00 0.00 58 1021.0
20260503185334 42 308 2.0 3.0 0.00 0.00 0.00 58 1020.9
20260503184834 42 307 1.0 2.0 0.00 0.00 0.00 57 1021.0
20260503184334 42 320 1.0 2.0 0.00 0.00 0.00 56 1020.8
20260503183834 42 314 1.0 2.0 0.00 0.00 0.00 56 1020.9
20260503182334 43 276 1.0 2.0 0.00 0.00 0.00 55 1020.7
20260503180334 45 231 2.0 3.0 0.00 0.00 0.00 54 1020.6
20260503175834 45 246 1.0 2.0 0.00 0.00 0.00 54 1020.8
20260503174834 46 274 1.0 2.0 0.00 0.00 0.00 53 1020.8
20260503174334 46 279 1.0 3.0 0.00 0.00 0.00 53 1020.8
20260503172333 47 323 3.0 6.0 0.00 0.01 0.00 52 1020.5
20260503171834 47 333 2.0 8.0 0.00 0.02 0.00 51 1020.5
20260503170834 48 35 5.0 8.0 0.00 0.03 0.00 50 1020.7
20260503150834 50 356 2.0 7.0 0.00 0.12 0.00 48 1020.6
20260503150334 50 354 5.0 13.0 0.00 0.12 0.00 48 1020.8
20260503131334 51 336 3.0 9.0 0.00 0.13 0.00 50 1021.5
20260503130334 50 342 3.0 6.0 0.00 0.13 0.00 50 1021.3
20260503090334 47 296 3.0 7.0 0.00 0.13 0.00 57 1022.9
20260503081334 44 342 2.0 8.0 0.00 0.13 0.00 62 1023.2
20260503080333 44 336 5.0 10.0 0.00 0.13 0.00 62 1023.2
20260503071833 43 260 3.0 6.0 0.00 0.13 0.00 66 1023.1
20260503071334 43 312 3.0 6.0 0.00 0.13 0.00 66 1023.3
20260503070834 43 292 2.0 8.0 0.00 0.13 0.00 66 1023.2
20260503060334 42 318 1.0 6.0 0.00 0.13 0.00 74 1023.1
20260503053834 40 257 3.0 6.0 0.00 0.13 0.00 77 1023.1
20260503051833 39 256 3.0 8.0 0.00 0.13 0.00 77 1022.8
20260503051334 39 292 3.0 8.0 0.00 0.13 0.00 77 1022.8
20260503050834 39 305 4.0 12.0 0.00 0.13 0.00 77 1022.8
20260503050334 38 300 6.0 12.0 0.00 0.13 0.00 78 1022.9
20260503045833 38 312 6.0 10.0 0.00 0.13 0.00 78 1022.7
20260503044333 37 299 3.0 8.0 0.00 0.13 0.00 77 1022.8
20260503042834 37 323 3.0 6.0 0.00 0.13 0.00 78 1022.4
20260503041334 36 26 0.0 1.0 0.00 0.13 0.00 78 1022.4
20260503040834 36 5 0.0 3.0 0.00 0.13 0.00 78 1022.4
20260503040333 36 220 1.0 3.0 0.00 0.13 0.00 78 1022.3
20260503035834 36 263 1.0 2.0 0.00 0.13 0.00 78 1022.1
20260503035333 36 64 1.0 2.0 0.00 0.13 0.00 78 1022.0
20260503034834 36 10 0.0 2.0 0.00 0.13 0.00 78 1021.9
20260503034334 36 313 1.0 2.0 0.00 0.13 0.00 77 1021.9
20260503033833 36 303 2.0 3.0 0.00 0.13 0.00 77 1021.7
20260503033333 36 315 1.0 2.0 0.00 0.13 0.00 77 1021.7
20260503031333 36 22 0.0 2.0 0.00 0.13 0.00 77 1021.6
20260503030333 35 336 5.0 10.0 0.00 0.13 0.00 78 1021.4
20260503025833 35 311 4.0 6.0 0.00 0.13 0.00 77 1021.4
20260503021834 36 158 2.0 2.0 0.00 0.13 0.00 76 1021.3
20260503020833 36 75 1.0 2.0 0.00 0.13 0.00 76 1021.1
20260503015833 37 91 2.0 3.0 0.00 0.13 0.00 76 1021.2
20260503015334 37 93 1.0 5.0 0.00 0.13 0.00 77 1020.9
20260503014333 37 285 2.0 6.0 0.00 0.13 0.00 77 1021.0
20260503013834 37 311 3.0 7.0 0.00 0.13 0.00 77 1021.2
20260503013334 37 302 3.0 7.0 0.00 0.13 0.00 77 1021.0
20260503011833 37 305 3.0 6.0 0.00 0.13 0.00 76 1021.1
20260503011334 37 265 2.0 5.0 0.00 0.13 0.00 76 1021.4
20260503010834 37 259 1.0 3.0 0.00 0.13 0.00 76 1021.2
20260503010333 37 287 1.0 3.0 0.00 0.13 0.00 75 1021.3
20260503005333 37 270 1.0 2.0 0.00 0.13 0.00 75 1021.1
20260503002834 38 308 1.0 3.0 0.00 0.13 0.00 75 1020.8
20260503002333 38 293 0.0 1.0 0.00 0.13 0.00 75 1020.8
20260503001833 38 338 0.0 2.0 0.00 0.13 0.00 75 1020.8
20260503001334 38 310 2.0 6.0 0.00 0.13 0.00 75 1020.9
20260502235334 39 286 3.0 6.0 0.00 0.13 0.00 75 1020.6
20260502234333 40 284 1.0 2.0 0.00 0.13 0.00 75 1020.5
20260502233334 40 297 1.0 3.0 0.00 0.13 0.00 75 1020.8
20260502232834 40 306 2.0 5.0 0.00 0.13 0.00 75 1020.8
20260502230833 40 280 1.0 2.0 0.00 0.13 0.00 75 1021.1
20260502223833 40 332 2.0 3.0 0.00 0.13 0.00 75 1021.2
20260502223333 40 353 2.0 3.0 0.00 0.13 0.00 75 1021.3
20260502220834 40 99 1.0 2.0 0.00 0.13 0.00 74 1021.1
20260502220333 40 104 1.0 2.0 0.00 0.13 0.00 74 1021.2
20260502215333 41 195 0.0 1.0 0.00 0.13 0.00 75 1021.4
20260502214834 41 213 1.0 3.0 0.00 0.13 0.00 75 1021.3
20260502213334 41 187 1.0 2.0 0.00 0.13 0.00 74 1021.5
20260502212833 41 178 1.0 2.0 0.00 0.13 0.00 74 1021.4
20260502212333 41 177 1.0 3.0 0.00 0.13 0.00 74 1021.6